Whitefield, NH

5:50 PM EST on February 26, 2017 (GMT -0500)
Mount Washington Regional

Weather History for KHIE - January, 2013

Change the Weather History Date:

Sunday, January 6, 2013

  Actual Average Record
Temperature  
Mean Temperature 14 °F -  
Max Temperature 28 °F 25 °F 62 °F (2007)
Min Temperature 1 °F 5 °F -18 °F (1999)
Degree Days  
Heating Degree Days 50    
Moisture  
Dew Point 13 °F    
Average Humidity 83    
Maximum Humidity 92    
Minimum Humidity 74    
Precipitation  
Precipitation 0.00 in - - ()
Sea Level Pressure  
Sea Level Pressure 29.96 in    
Wind  
Wind Speed 0 mph (North)    
Max Wind Speed 0 mph    
Max Gust Speed -    
Visibility 5 miles    
Events Snow    
Averages and records for this station are not official NWS values.
T = Trace of Precipitation, MM = Missing Value Source: NWS Daily Summary

Daily Weather History Graph

Daily Weather History Graph

Search for Another Location

Airport or City:

Trip Planner

Search our weather history database for the weather conditions in past years. The results will help you decide how hot, cold, wet, or windy it might be!

Date:

Astronomy

Jan. 06, 2013 Rise Set
Actual Time 7:21 AM EST 4:22 PM EST
Civil Twilight 6:48 AM EST 4:55 PM EST
Nautical Twilight 6:12 AM EST 5:32 PM EST
Astronomical Twilight 5:37 AM EST 6:07 PM EST
Moon 1:27 AM EST (1/6) 11:52 AM EST (1/6)
Length of Visible Light 10h 06m
Length of Day
9h 00m
Waning Crescent, 33% of the Moon is Illuminated
Jan 6
Waning Crescent
Jan 11
New
Jan 18
First Quarter
Jan 26
Full
Feb 3
Last Quarter

Hourly Weather History & Observations

Time (EST) Temp. Dew Point Humidity Pressure Visibility Wind Dir Wind Speed Gust Speed Precip Events Conditions
12:52 AM 1.9 °F -2.9 °F 80% 30.20 in 10.0 mi Calm Calm - N/A   Clear
1:52 AM 3.9 °F -0.0 °F 84% 30.19 in 10.0 mi Calm Calm - N/A   Clear
2:38 AM 5.0 °F 1.4 °F 85% 30.11 in 10.0 mi Calm Calm - N/A   Scattered Clouds
2:52 AM 5.0 °F 1.0 °F 84% 30.16 in 10.0 mi Calm Calm - N/A   Partly Cloudy
3:52 AM 7.0 °F 3.0 °F 84% 30.12 in 10.0 mi Calm Calm - N/A   Overcast
4:52 AM 9.0 °F 3.9 °F 80% 30.09 in 10.0 mi Calm Calm - N/A   Overcast
5:52 AM 10.0 °F 6.1 °F 84% 30.07 in 10.0 mi Calm Calm - N/A   Overcast
6:52 AM 10.9 °F 7.0 °F 84% 30.06 in 2.5 mi Calm Calm - 0.00 in Snow Light Snow
7:02 AM 10.4 °F 6.8 °F 85% 29.98 in 4.0 mi Calm Calm - 0.00 in Snow Light Snow
7:22 AM 10.4 °F 8.6 °F 92% 29.97 in 2.5 mi Calm Calm - 0.00 in Snow Light Snow
7:30 AM 12.2 °F 8.6 °F 85% 29.97 in 1.0 mi Calm Calm - 0.00 in Snow Light Snow
7:45 AM 12.2 °F 6.8 °F 79% 29.96 in 1.8 mi Calm Calm - 0.00 in Snow Light Snow
7:52 AM 12.0 °F 8.1 °F 84% 30.04 in 1.5 mi Calm Calm - 0.00 in Snow Light Snow
8:08 AM 12.2 °F 8.6 °F 85% 29.96 in 1.0 mi Calm Calm - 0.00 in Snow Light Snow
8:19 AM 12.2 °F 8.6 °F 85% 29.96 in 1.5 mi Calm Calm - 0.00 in Snow Light Snow
8:28 AM 12.2 °F 8.6 °F 85% 29.96 in 2.5 mi Calm Calm - 0.00 in Snow Light Snow
8:35 AM 12.2 °F 8.6 °F 85% 29.96 in 3.0 mi Calm Calm - 0.00 in Snow Light Snow
8:43 AM 12.2 °F 8.6 °F 85% 29.96 in 2.0 mi Calm Calm - 0.00 in Snow Light Snow
8:52 AM 12.9 °F 9.0 °F 84% 30.04 in 2.5 mi Calm Calm - 0.00 in Snow Light Snow
9:04 AM 14.0 °F 10.4 °F 86% 29.96 in 2.5 mi Calm Calm - 0.00 in Snow Light Snow
9:12 AM 14.0 °F 10.4 °F 86% 29.96 in 8.0 mi Calm Calm - 0.00 in   Overcast
9:50 AM 15.8 °F 10.4 °F 79% 29.96 in 5.0 mi Calm Calm - 0.00 in Snow Light Snow
9:52 AM 16.0 °F 10.9 °F 81% 30.04 in 5.0 mi Calm Calm - 0.00 in Snow Light Snow
10:30 AM 17.6 °F 12.2 °F 79% 29.93 in 1.5 mi Calm Calm - 0.00 in   Haze
10:33 AM 17.6 °F 12.2 °F 79% 29.93 in 0.8 mi Calm Calm - 0.00 in   Haze
10:45 AM 17.6 °F 12.2 °F 79% 29.92 in 1.2 mi Calm Calm - 0.00 in   Haze
10:52 AM 18.0 °F 12.0 °F 78% 29.99 in 2.5 mi Calm Calm - 0.00 in   Haze
11:03 AM 17.6 °F 12.2 °F 79% 29.91 in 4.0 mi Calm Calm - N/A   Haze
11:10 AM 19.4 °F 12.2 °F 74% 29.90 in 7.0 mi Calm Calm - N/A   Overcast
11:28 AM 19.4 °F 14.0 °F 80% 29.90 in 10.0 mi Calm Calm - N/A   Overcast
11:52 AM 21.0 °F 16.0 °F 81% 29.96 in 6.0 mi Calm Calm - N/A   Haze
12:52 PM 24.1 °F 18.0 °F 77% 29.94 in 10.0 mi Calm Calm - N/A   Overcast
1:19 PM 24.8 °F 19.4 °F 80% 29.87 in 2.0 mi Calm Calm - 0.00 in Snow Light Snow
1:33 PM 24.8 °F 19.4 °F 80% 29.86 in 3.0 mi Calm Calm - 0.00 in Snow Light Snow
1:52 PM 26.1 °F 19.9 °F 78% 29.93 in 4.0 mi Calm Calm - 0.00 in Snow Light Snow
2:52 PM 28.0 °F 21.0 °F 75% 29.92 in 8.0 mi Calm Calm - 0.00 in   Overcast
3:52 PM 27.0 °F 21.9 °F 81% 29.92 in 10.0 mi Calm Calm - 0.00 in   Overcast
4:52 PM 27.0 °F 21.9 °F 81% 29.91 in 10.0 mi Calm Calm - N/A   Overcast
5:52 PM 25.0 °F 21.9 °F 88% 29.92 in 6.0 mi Calm Calm - 0.00 in Snow Light Snow
6:28 PM 24.8 °F 21.2 °F 86% 29.87 in 2.5 mi Calm Calm - 0.00 in Snow Light Snow
6:33 PM 24.8 °F 21.2 °F 86% 29.87 in 3.0 mi Calm Calm - 0.00 in Snow Light Snow
6:52 PM 25.0 °F 21.9 °F 88% 29.93 in 4.0 mi Calm Calm - 0.00 in Snow Light Snow
7:18 PM 24.8 °F 21.2 °F 86% 29.87 in 2.0 mi Calm Calm - 0.00 in Snow Light Snow
7:32 PM 24.8 °F 21.2 °F 86% 29.87 in 6.0 mi Calm Calm - 0.00 in   Overcast
7:52 PM 25.0 °F 21.9 °F 88% 29.93 in 4.0 mi Calm Calm - 0.00 in Snow Light Snow
8:15 PM 24.8 °F 21.2 °F 86% 29.87 in 2.0 mi Calm Calm - 0.00 in Snow Light Snow
8:31 PM 24.8 °F 21.2 °F 86% 29.87 in 4.0 mi Calm Calm - 0.00 in Snow Light Snow
8:38 PM 24.8 °F 21.2 °F 86% 29.87 in 4.0 mi Calm Calm - 0.00 in Snow Light Snow
8:52 PM 24.1 °F 21.9 °F 91% 29.93 in 6.0 mi Calm Calm - 0.00 in   Overcast
9:52 PM 24.1 °F 21.9 °F 91% 29.93 in 7.0 mi Calm Calm - 0.00 in   Overcast
10:52 PM 25.0 °F 21.9 °F 88% 29.94 in 6.0 mi Calm Calm - 0.00 in   Overcast
11:52 PM 25.0 °F 21.9 °F 88% 29.94 in 10.0 mi Calm Calm - N/A   Overcast